Location: Unnamed
(51.8936°N, 11.0665°E)
Time: 00:30:33
(UTC+02:00)

UKube-1 - Pass Details

Date: 27 September 2021
Orbit: 611 x 618 km, 98.4° (Epoch: 18 October)

Event Time Altitude Azimuth Distance (km) Brightness Sun altitude
Rises 23:52:48 0° 2° (N) 2,893 ? -37.8°
Reaches altitude 10° 23:55:52 10° 338° (NNW) 1,983 ? -38.0°
Enters shadow 23:56:57 13° 324° (NW) 1,791 ? -38.0°
